owner,sensor,date,latitude,longitude,vertical_datum,wind_speed,wind_to_direction,wind_speed_of_gust,qcFlag 
TCOON,ioos:station:TCOON:009:1,2019-09-01T00:24:00Z,27.8398,-97.0727,0.0,3.8,107.0,6.3,'11111222,11111222,11111222' 
TCOON,ioos:station:TCOON:009:1,2019-09-01T01:24:00Z,27.8398,-97.0727,0.0,3.5,98.0,4.6,'11111222,11111222,11111222' 
TCOON,ioos:station:TCOON:009:1,2019-09-01T02:24:00Z,27.8398,-97.0727,0.0,2.6,100.0,3.5,'11111222,11111222,11111222' 
TCOON,ioos:station:TCOON:009:1,2019-09-01T03:24:00Z,27.8398,-97.0727,0.0,3.0,101.0,4.0,'11111222,11111222,11111222' 
TCOON,ioos:station:TCOON:009:1,2019-09-01T04:24:00Z,27.8398,-97.0727,0.0,3.3,104.0,5.0,'11111222,11111222,11111222' 
TCOON,ioos:station:TCOON:009:1,2019-09-01T05:24:00Z,27.8398,-97.0727,0.0,2.6,108.0,3.9,'11111222,11111222,11111222' 
TCOON,ioos:station:TCOON:009:1,2019-09-01T06:24:00Z,27.8398,-97.0727,0.0,3.1,110.0,4.5,'11111222,11111222,11111222' 
TCOON,ioos:station:TCOON:009:1,2019-09-01T07:24:00Z,27.8398,-97.0727,0.0,2.6,104.0,4.3,'11111222,11111222,11111222' 
TCOON,ioos:station:TCOON:009:1,2019-09-01T08:24:00Z,27.8398,-97.0727,0.0,2.7,122.0,3.6,'11111222,11111222,11111222' 
TCOON,ioos:station:TCOON:009:1,2019-09-01T09:24:00Z,27.8398,-97.0727,0.0,0.5,164.0,1.1,'11111222,11111222,11111222' 
TCOON,ioos:station:TCOON:009:1,2019-09-01T10:24:00Z,27.8398,-97.0727,0.0,0.2,191.0,0.4,'11111222,11111222,11111222' 
TCOON,ioos:station:TCOON:009:1,2019-09-01T11:24:00Z,27.8398,-97.0727,0.0,0.0,18.0,0.2,'11111222,11111222,11111222' 
TCOON,ioos:station:TCOON:009:1,2019-09-01T12:24:00Z,27.8398,-97.0727,0.0,1.4,337.0,1.7,'11111222,11111222,11111222' 
TCOON,ioos:station:TCOON:009:1,2019-09-01T13:24:00Z,27.8398,-97.0727,0.0,0.9,307.0,1.4,'11111222,11111222,11111222' 
TCOON,ioos:station:TCOON:009:1,2019-09-01T14:24:00Z,27.8398,-97.0727,0.0,2.3,9.0,3.1,'11111222,11111222,11111222' 
TCOON,ioos:station:TCOON:009:1,2019-09-01T15:24:00Z,27.8398,-97.0727,0.0,4.7,7.0,5.8,'11111222,11111222,11111222' 
TCOON,ioos:station:TCOON:009:1,2019-09-01T16:24:00Z,27.8398,-97.0727,0.0,4.7,62.0,6.1,'11111222,11111222,11111222' 
TCOON,ioos:station:TCOON:009:1,2019-09-01T17:24:00Z,27.8398,-97.0727,0.0,4.6,57.0,5.6,'11111222,11111222,11111222' 
TCOON,ioos:station:TCOON:009:1,2019-09-01T18:24:00Z,27.8398,-97.0727,0.0,4.3,68.0,5.3,'11111222,11111222,11111222' 
TCOON,ioos:station:TCOON:009:1,2019-09-01T19:30:00Z,27.8398,-97.0727,0.0,4.0,84.0,5.9,'11111222,11111222,11111222' 
TCOON,ioos:station:TCOON:009:1,2019-09-01T20:24:00Z,27.8398,-97.0727,0.0,4.7,87.0,6.3,'11111222,11111222,11111222' 
TCOON,ioos:station:TCOON:009:1,2019-09-01T21:24:00Z,27.8398,-97.0727,0.0,4.0,87.0,6.9,'11111222,11111222,11111222' 
TCOON,ioos:station:TCOON:009:1,2019-09-01T22:24:00Z,27.8398,-97.0727,0.0,4.4,87.0,6.3,'11111222,11111222,11111222' 
TCOON,ioos:station:TCOON:009:1,2019-09-01T23:24:00Z,27.8398,-97.0727,0.0,4.2,103.0,6.0,'11111222,11111222,11111222' 
TCOON,ioos:station:TCOON:009:1,2019-09-02T00:24:00Z,27.8398,-97.0727,0.0,4.3,92.0,5.8,'11111222,11111222,11111222' 
TCOON,ioos:station:TCOON:009:1,2019-09-02T01:24:00Z,27.8398,-97.0727,0.0,5.0,99.0,7.2,'11111222,11111222,11111222' 
TCOON,ioos:station:TCOON:009:1,2019-09-02T02:24:00Z,27.8398,-97.0727,0.0,4.6,88.0,6.9,'11111222,11111222,11111222' 
TCOON,ioos:station:TCOON:009:1,2019-09-02T03:24:00Z,27.8398,-97.0727,0.0,6.1,93.0,7.7,'11111222,11111222,11111222' 
TCOON,ioos:station:TCOON:009:1,2019-09-02T04:24:00Z,27.8398,-97.0727,0.0,5.7,82.0,8.3,'11111222,11111222,11111222' 
TCOON,ioos:station:TCOON:009:1,2019-09-02T05:24:00Z,27.8398,-97.0727,0.0,3.9,85.0,6.0,'11111222,11111222,11111222' 
TCOON,ioos:station:TCOON:009:1,2019-09-02T06:24:00Z,27.8398,-97.0727,0.0,3.6,94.0,4.4,'11111222,11111222,11111222' 
TCOON,ioos:station:TCOON:009:1,2019-09-02T07:24:00Z,27.8398,-97.0727,0.0,2.9,93.0,4.1,'11111222,11111222,11111222' 
TCOON,ioos:station:TCOON:009:1,2019-09-02T08:24:00Z,27.8398,-97.0727,0.0,3.1,73.0,3.8,'11111222,11111222,11111222' 
TCOON,ioos:station:TCOON:009:1,2019-09-02T09:24:00Z,27.8398,-97.0727,0.0,2.9,73.0,3.7,'11111222,11111222,11111222' 
TCOON,ioos:station:TCOON:009:1,2019-09-02T10:24:00Z,27.8398,-97.0727,0.0,2.8,49.0,3.5,'11111222,11111222,11111222' 
TCOON,ioos:station:TCOON:009:1,2019-09-02T11:24:00Z,27.8398,-97.0727,0.0,1.7,9.0,2.4,'11111222,11111222,11111222' 
TCOON,ioos:station:TCOON:009:1,2019-09-02T12:24:00Z,27.8398,-97.0727,0.0,2.7,350.0,4.3,'11111222,11111222,11111222' 
TCOON,ioos:station:TCOON:009:1,2019-09-02T15:24:00Z,27.8398,-97.0727,0.0,6.9,13.0,8.1,'11111222,11111222,11111222' 
TCOON,ioos:station:TCOON:009:1,2019-09-02T16:24:00Z,27.8398,-97.0727,0.0,6.2,11.0,7.8,'11111222,11111222,11111222' 
TCOON,ioos:station:TCOON:009:1,2019-09-02T17:24:00Z,27.8398,-97.0727,0.0,5.7,47.0,7.8,'11111222,11111222,11111222' 
TCOON,ioos:station:TCOON:009:1,2019-09-02T18:24:00Z,27.8398,-97.0727,0.0,7.6,64.0,8.9,'11111222,11111222,11111222' 
TCOON,ioos:station:TCOON:009:1,2019-09-02T19:24:00Z,27.8398,-97.0727,0.0,6.6,68.0,7.8,'11111222,11111222,11111222' 
TCOON,ioos:station:TCOON:009:1,2019-09-02T20:30:00Z,27.8398,-97.0727,0.0,6.6,73.0,8.1,'11111222,11111222,11111222' 
TCOON,ioos:station:TCOON:009:1,2019-09-02T21:24:00Z,27.8398,-97.0727,0.0,5.8,74.0,8.9,'11111222,11111222,11111222' 
TCOON,ioos:station:TCOON:009:1,2019-09-02T22:30:00Z,27.8398,-97.0727,0.0,8.4,65.0,10.2,'11111222,11111222,11111222' 
TCOON,ioos:station:TCOON:009:1,2019-09-02T23:24:00Z,27.8398,-97.0727,0.0,7.6,75.0,9.1,'11111222,11111222,11111222' 
TCOON,ioos:station:TCOON:009:1,2019-09-03T00:24:00Z,27.8398,-97.0727,0.0,6.6,80.0,8.5,'11111222,11111222,11111222' 
TCOON,ioos:station:TCOON:009:1,2019-09-03T01:24:00Z,27.8398,-97.0727,0.0,5.8,74.0,8.3,'11111222,11111222,11111222' 
TCOON,ioos:station:TCOON:009:1,2019-09-03T02:24:00Z,27.8398,-97.0727,0.0,5.6,82.0,7.8,'11111222,11111222,11111222' 
TCOON,ioos:station:TCOON:009:1,2019-09-03T03:24:00Z,27.8398,-97.0727,0.0,4.9,74.0,7.8,'11111222,11111222,11111222' 
TCOON,ioos:station:TCOON:009:1,2019-09-03T04:24:00Z,27.8398,-97.0727,0.0,5.7,75.0,8.1,'11111222,11111222,11111222' 
TCOON,ioos:station:TCOON:009:1,2019-09-03T05:24:00Z,27.8398,-97.0727,0.0,5.0,82.0,6.6,'11111222,11111222,11111222' 
TCOON,ioos:station:TCOON:009:1,2019-09-03T06:24:00Z,27.8398,-97.0727,0.0,5.0,87.0,6.6,'11111222,11111222,11111222' 
TCOON,ioos:station:TCOON:009:1,2019-09-03T07:24:00Z,27.8398,-97.0727,0.0,4.6,74.0,5.9,'11111222,11111222,11111222' 
TCOON,ioos:station:TCOON:009:1,2019-09-03T08:24:00Z,27.8398,-97.0727,0.0,3.5,47.0,5.2,'11111222,11111222,11111222' 
TCOON,ioos:station:TCOON:009:1,2019-09-03T09:24:00Z,27.8398,-97.0727,0.0,3.3,47.0,3.8,'11111222,11111222,11111222' 
TCOON,ioos:station:TCOON:009:1,2019-09-03T10:24:00Z,27.8398,-97.0727,0.0,1.9,347.0,2.7,'11111222,11111222,11111222' 
TCOON,ioos:station:TCOON:009:1,2019-09-03T11:24:00Z,27.8398,-97.0727,0.0,2.8,330.0,3.6,'11111222,11111222,11111222' 
TCOON,ioos:station:TCOON:009:1,2019-09-03T12:30:00Z,27.8398,-97.0727,0.0,5.1,6.0,7.5,'11111222,11111222,11111222' 
TCOON,ioos:station:TCOON:009:1,2019-09-03T13:30:00Z,27.8398,-97.0727,0.0,7.1,4.0,8.9,'11111222,11111222,11111222' 
TCOON,ioos:station:TCOON:009:1,2019-09-03T14:30:00Z,27.8398,-97.0727,0.0,6.3,7.0,7.8,'11111222,11111222,11111222' 
TCOON,ioos:station:TCOON:009:1,2019-09-03T15:30:00Z,27.8398,-97.0727,0.0,6.6,6.0,8.5,'11111222,11111222,11111222' 
TCOON,ioos:station:TCOON:009:1,2019-09-03T16:30:00Z,27.8398,-97.0727,0.0,7.6,12.0,9.5,'11111222,11111222,11111222' 
TCOON,ioos:station:TCOON:009:1,2019-09-03T17:30:00Z,27.8398,-97.0727,0.0,8.6,42.0,10.5,'11111222,11111222,11111222' 
TCOON,ioos:station:TCOON:009:1,2019-09-03T18:30:00Z,27.8398,-97.0727,0.0,8.1,48.0,10.6,'11111222,11111222,11111222' 
TCOON,ioos:station:TCOON:009:1,2019-09-03T19:30:00Z,27.8398,-97.0727,0.0,8.5,58.0,10.2,'11111222,11111222,11111222' 
TCOON,ioos:station:TCOON:009:1,2019-09-03T20:30:00Z,27.8398,-97.0727,0.0,9.0,53.0,10.9,'11111222,11111222,11111222' 
TCOON,ioos:station:TCOON:009:1,2019-09-03T21:30:00Z,27.8398,-97.0727,0.0,8.3,57.0,10.3,'11111222,11111222,11111222' 
TCOON,ioos:station:TCOON:009:1,2019-09-03T22:30:00Z,27.8398,-97.0727,0.0,8.9,67.0,10.8,'11111222,11111222,11111222' 
TCOON,ioos:station:TCOON:009:1,2019-09-03T23:24:00Z,27.8398,-97.0727,0.0,9.2,61.0,11.1,'11111222,11111222,11111222' 
TCOON,ioos:station:TCOON:009:1,2019-09-04T00:24:00Z,27.8398,-97.0727,0.0,8.6,68.0,10.2,'11111222,11111222,11111222' 
TCOON,ioos:station:TCOON:009:1,2019-09-04T01:24:00Z,27.8398,-97.0727,0.0,6.7,58.0,8.4,'11111222,11111222,11111222' 
TCOON,ioos:station:TCOON:009:1,2019-09-04T02:24:00Z,27.8398,-97.0727,0.0,7.6,65.0,9.6,'11111222,11111222,11111222' 
TCOON,ioos:station:TCOON:009:1,2019-09-04T03:24:00Z,27.8398,-97.0727,0.0,7.4,75.0,9.9,'11111222,11111222,11111222' 
TCOON,ioos:station:TCOON:009:1,2019-09-04T04:24:00Z,27.8398,-97.0727,0.0,8.0,71.0,10.3,'11111222,11111222,11111222' 
TCOON,ioos:station:TCOON:009:1,2019-09-04T05:24:00Z,27.8398,-97.0727,0.0,7.0,71.0,10.0,'11111222,11111222,11111222' 
TCOON,ioos:station:TCOON:009:1,2019-09-04T06:24:00Z,27.8398,-97.0727,0.0,8.4,60.0,9.9,'11111222,11111222,11111222' 
TCOON,ioos:station:TCOON:009:1,2019-09-04T07:24:00Z,27.8398,-97.0727,0.0,7.9,63.0,10.5,'11111222,11111222,11111222' 
TCOON,ioos:station:TCOON:009:1,2019-09-04T08:24:00Z,27.8398,-97.0727,0.0,12.1,68.0,15.5,'11111222,11111222,11111222' 
TCOON,ioos:station:TCOON:009:1,2019-09-04T09:24:00Z,27.8398,-97.0727,0.0,8.3,72.0,10.7,'11111222,11111222,11111222' 
TCOON,ioos:station:TCOON:009:1,2019-09-04T10:24:00Z,27.8398,-97.0727,0.0,9.0,62.0,11.4,'11111222,11111222,11111222' 
TCOON,ioos:station:TCOON:009:1,2019-09-04T11:24:00Z,27.8398,-97.0727,0.0,8.6,61.0,10.2,'11111222,11111222,11111222' 
TCOON,ioos:station:TCOON:009:1,2019-09-04T12:24:00Z,27.8398,-97.0727,0.0,9.0,61.0,11.1,'11111222,11111222,11111222' 
TCOON,ioos:station:TCOON:009:1,2019-09-04T13:30:00Z,27.8398,-97.0727,0.0,8.3,53.0,10.2,'11111222,11111222,11111222' 
TCOON,ioos:station:TCOON:009:1,2019-09-04T14:30:00Z,27.8398,-97.0727,0.0,8.6,49.0,11.3,'11111222,11111222,11111222' 
TCOON,ioos:station:TCOON:009:1,2019-09-04T15:30:00Z,27.8398,-97.0727,0.0,8.9,58.0,11.0,'11111222,11111222,11111222' 
TCOON,ioos:station:TCOON:009:1,2019-09-04T16:30:00Z,27.8398,-97.0727,0.0,10.0,61.0,13.5,'11111222,11111222,11111222' 
TCOON,ioos:station:TCOON:009:1,2019-09-04T17:30:00Z,27.8398,-97.0727,0.0,10.6,68.0,13.8,'11111222,11111222,11111222' 
TCOON,ioos:station:TCOON:009:1,2019-09-04T18:30:00Z,27.8398,-97.0727,0.0,10.8,63.0,13.8,'11111222,11111222,11111222' 
TCOON,ioos:station:TCOON:009:1,2019-09-04T19:30:00Z,27.8398,-97.0727,0.0,9.6,68.0,12.7,'11111222,11111222,11111222' 
TCOON,ioos:station:TCOON:009:1,2019-09-04T20:30:00Z,27.8398,-97.0727,0.0,10.0,74.0,12.8,'11111222,11111222,11111222' 
TCOON,ioos:station:TCOON:009:1,2019-09-04T21:30:00Z,27.8398,-97.0727,0.0,8.7,72.0,12.3,'11111222,11111222,11111222' 
TCOON,ioos:station:TCOON:009:1,2019-09-04T22:30:00Z,27.8398,-97.0727,0.0,10.2,74.0,12.3,'11111222,11111222,11111222' 
TCOON,ioos:station:TCOON:009:1,2019-09-04T23:24:00Z,27.8398,-97.0727,0.0,9.1,75.0,12.0,'11111222,11111222,11111222' 
TCOON,ioos:station:TCOON:009:1,2019-09-05T00:24:00Z,27.8398,-97.0727,0.0,8.5,72.0,11.6,'11111222,11111222,11111222' 
TCOON,ioos:station:TCOON:009:1,2019-09-05T01:24:00Z,27.8398,-97.0727,0.0,7.6,75.0,11.6,'11111222,11111222,11111222' 
TCOON,ioos:station:TCOON:009:1,2019-09-05T02:24:00Z,27.8398,-97.0727,0.0,8.1,70.0,11.8,'11111222,11111222,11111222' 
TCOON,ioos:station:TCOON:009:1,2019-09-05T03:24:00Z,27.8398,-97.0727,0.0,8.2,78.0,10.8,'11111222,11111222,11111222' 
TCOON,ioos:station:TCOON:009:1,2019-09-05T04:24:00Z,27.8398,-97.0727,0.0,6.9,85.0,10.2,'11111222,11111222,11111222' 
TCOON,ioos:station:TCOON:009:1,2019-09-05T05:24:00Z,27.8398,-97.0727,0.0,3.4,97.0,5.5,'11111222,11111222,11111222' 
TCOON,ioos:station:TCOON:009:1,2019-09-05T06:24:00Z,27.8398,-97.0727,0.0,6.7,78.0,8.4,'11111222,11111222,11111222' 
TCOON,ioos:station:TCOON:009:1,2019-09-05T07:24:00Z,27.8398,-97.0727,0.0,4.1,115.0,8.4,'11111222,11111222,11111222' 
TCOON,ioos:station:TCOON:009:1,2019-09-05T08:24:00Z,27.8398,-97.0727,0.0,4.7,103.0,7.0,'11111222,11111222,11111222' 
TCOON,ioos:station:TCOON:009:1,2019-09-05T09:24:00Z,27.8398,-97.0727,0.0,4.6,102.0,5.8,'11111222,11111222,11111222' 
TCOON,ioos:station:TCOON:009:1,2019-09-05T10:24:00Z,27.8398,-97.0727,0.0,7.4,71.0,9.5,'11111222,11111222,11111222' 
TCOON,ioos:station:TCOON:009:1,2019-09-05T11:24:00Z,27.8398,-97.0727,0.0,3.6,106.0,5.5,'11111222,11111222,11111222' 
TCOON,ioos:station:TCOON:009:1,2019-09-05T12:24:00Z,27.8398,-97.0727,0.0,0.8,4.0,3.3,'11111222,11111222,11111222' 
TCOON,ioos:station:TCOON:009:1,2019-09-05T13:30:00Z,27.8398,-97.0727,0.0,2.2,75.0,2.7,'11111222,11111222,11111222' 
TCOON,ioos:station:TCOON:009:1,2019-09-05T14:30:00Z,27.8398,-97.0727,0.0,2.5,70.0,3.4,'11111222,11111222,11111222' 
TCOON,ioos:station:TCOON:009:1,2019-09-05T15:30:00Z,27.8398,-97.0727,0.0,3.0,4.0,3.5,'11111222,11111222,11111222' 
TCOON,ioos:station:TCOON:009:1,2019-09-05T16:24:00Z,27.8398,-97.0727,0.0,4.0,80.0,6.1,'11111222,11111222,11111222' 
TCOON,ioos:station:TCOON:009:1,2019-09-05T17:30:00Z,27.8398,-97.0727,0.0,4.1,75.0,5.7,'11111222,11111222,11111222' 
TCOON,ioos:station:TCOON:009:1,2019-09-05T18:30:00Z,27.8398,-97.0727,0.0,3.9,73.0,5.6,'11111222,11111222,11111222' 
TCOON,ioos:station:TCOON:009:1,2019-09-05T19:30:00Z,27.8398,-97.0727,0.0,2.8,72.0,3.2,'11111222,11111222,11111222' 
TCOON,ioos:station:TCOON:009:1,2019-09-05T20:24:00Z,27.8398,-97.0727,0.0,3.4,65.0,4.6,'11111222,11111222,11111222' 
TCOON,ioos:station:TCOON:009:1,2019-09-05T21:30:00Z,27.8398,-97.0727,0.0,3.8,55.0,5.0,'11111222,11111222,11111222' 
TCOON,ioos:station:TCOON:009:1,2019-09-05T22:24:00Z,27.8398,-97.0727,0.0,2.9,107.0,4.4,'11111222,11111222,11111222' 
TCOON,ioos:station:TCOON:009:1,2019-09-05T23:24:00Z,27.8398,-97.0727,0.0,3.4,124.0,4.7,'11111222,11111222,11111222' 
TCOON,ioos:station:TCOON:009:1,2019-09-06T00:24:00Z,27.8398,-97.0727,0.0,2.3,126.0,3.6,'11111222,11111222,11111222' 
TCOON,ioos:station:TCOON:009:1,2019-09-06T01:24:00Z,27.8398,-97.0727,0.0,2.3,107.0,3.4,'11111222,11111222,11111222' 
TCOON,ioos:station:TCOON:009:1,2019-09-06T02:24:00Z,27.8398,-97.0727,0.0,2.7,106.0,3.4,'11111222,11111222,11111222' 
TCOON,ioos:station:TCOON:009:1,2019-09-06T03:24:00Z,27.8398,-97.0727,0.0,2.6,109.0,3.6,'11111222,11111222,11111222' 
TCOON,ioos:station:TCOON:009:1,2019-09-06T04:24:00Z,27.8398,-97.0727,0.0,1.7,118.0,2.6,'11111222,11111222,11111222' 
TCOON,ioos:station:TCOON:009:1,2019-09-06T06:48:00Z,27.8398,-97.0727,0.0,2.5,127.0,3.4,'11111222,11111222,11111222' 
TCOON,ioos:station:TCOON:009:1,2019-09-06T07:42:00Z,27.8398,-97.0727,0.0,1.3,128.0,2.0,'11111222,11111222,11111222' 
TCOON,ioos:station:TCOON:009:1,2019-09-06T08:24:00Z,27.8398,-97.0727,0.0,1.5,121.0,2.4,'11111222,11111222,11111222' 
TCOON,ioos:station:TCOON:009:1,2019-09-06T09:24:00Z,27.8398,-97.0727,0.0,0.6,152.0,1.8,'11111222,11111222,11111222' 
TCOON,ioos:station:TCOON:009:1,2019-09-06T10:24:00Z,27.8398,-97.0727,0.0,1.0,213.0,1.2,'11111222,11111222,11111222' 
TCOON,ioos:station:TCOON:009:1,2019-09-06T11:24:00Z,27.8398,-97.0727,0.0,0.9,218.0,1.1,'11111222,11111222,11111222' 
TCOON,ioos:station:TCOON:009:1,2019-09-06T12:30:00Z,27.8398,-97.0727,0.0,0.9,352.0,1.0,'11111222,11111222,11111222' 
TCOON,ioos:station:TCOON:009:1,2019-09-06T13:24:00Z,27.8398,-97.0727,0.0,1.7,348.0,2.1,'11111222,11111222,11111222' 
TCOON,ioos:station:TCOON:009:1,2019-09-06T14:24:00Z,27.8398,-97.0727,0.0,2.1,6.0,2.8,'11111222,11111222,11111222' 
TCOON,ioos:station:TCOON:009:1,2019-09-06T15:24:00Z,27.8398,-97.0727,0.0,3.3,16.0,4.0,'11111222,11111222,11111222' 
TCOON,ioos:station:TCOON:009:1,2019-09-06T16:30:00Z,27.8398,-97.0727,0.0,3.1,64.0,3.8,'11111222,11111222,11111222' 
TCOON,ioos:station:TCOON:009:1,2019-09-06T17:30:00Z,27.8398,-97.0727,0.0,2.9,56.0,4.3,'11111222,11111222,11111222' 
TCOON,ioos:station:TCOON:009:1,2019-09-06T18:30:00Z,27.8398,-97.0727,0.0,4.2,93.0,5.8,'11111222,11111222,11111222' 
TCOON,ioos:station:TCOON:009:1,2019-09-06T19:30:00Z,27.8398,-97.0727,0.0,3.8,105.0,5.0,'11111222,11111222,11111222' 
TCOON,ioos:station:TCOON:009:1,2019-09-06T20:24:00Z,27.8398,-97.0727,0.0,3.9,99.0,6.6,'11111222,11111222,11111222' 
TCOON,ioos:station:TCOON:009:1,2019-09-06T21:24:00Z,27.8398,-97.0727,0.0,4.0,103.0,5.7,'11111222,11111222,11111222' 
TCOON,ioos:station:TCOON:009:1,2019-09-06T22:24:00Z,27.8398,-97.0727,0.0,4.1,94.0,6.8,'11111222,11111222,11111222' 
TCOON,ioos:station:TCOON:009:1,2019-09-06T23:24:00Z,27.8398,-97.0727,0.0,4.7,97.0,6.7,'11111222,11111222,11111222' 
TCOON,ioos:station:TCOON:009:1,2019-09-07T00:24:00Z,27.8398,-97.0727,0.0,3.8,113.0,5.4,'11111222,11111222,11111222' 
TCOON,ioos:station:TCOON:009:1,2019-09-07T01:24:00Z,27.8398,-97.0727,0.0,3.1,101.0,4.5,'11111222,11111222,11111222' 
TCOON,ioos:station:TCOON:009:1,2019-09-07T02:24:00Z,27.8398,-97.0727,0.0,3.7,122.0,5.2,'11111222,11111222,11111222' 
TCOON,ioos:station:TCOON:009:1,2019-09-07T03:24:00Z,27.8398,-97.0727,0.0,2.6,135.0,6.1,'11111222,11111222,11111222' 
TCOON,ioos:station:TCOON:009:1,2019-09-07T04:24:00Z,27.8398,-97.0727,0.0,4.1,131.0,6.6,'11111222,11111222,11111222' 
TCOON,ioos:station:TCOON:009:1,2019-09-07T05:24:00Z,27.8398,-97.0727,0.0,2.8,146.0,5.1,'11111222,11111222,11111222' 
TCOON,ioos:station:TCOON:009:1,2019-09-07T06:24:00Z,27.8398,-97.0727,0.0,2.9,153.0,5.6,'11111222,11111222,11111222' 
TCOON,ioos:station:TCOON:009:1,2019-09-07T07:24:00Z,27.8398,-97.0727,0.0,2.8,167.0,4.1,'11111222,11111222,11111222' 
TCOON,ioos:station:TCOON:009:1,2019-09-07T08:24:00Z,27.8398,-97.0727,0.0,3.1,164.0,5.8,'11111222,11111222,11111222' 
TCOON,ioos:station:TCOON:009:1,2019-09-07T09:24:00Z,27.8398,-97.0727,0.0,1.9,179.0,2.7,'11111222,11111222,11111222' 
TCOON,ioos:station:TCOON:009:1,2019-09-07T10:24:00Z,27.8398,-97.0727,0.0,2.1,186.0,2.8,'11111222,11111222,11111222' 
TCOON,ioos:station:TCOON:009:1,2019-09-07T11:24:00Z,27.8398,-97.0727,0.0,1.4,174.0,3.3,'11111222,11111222,11111222' 
TCOON,ioos:station:TCOON:009:1,2019-09-07T12:24:00Z,27.8398,-97.0727,0.0,1.3,160.0,3.1,'11111222,11111222,11111222' 
TCOON,ioos:station:TCOON:009:1,2019-09-07T13:24:00Z,27.8398,-97.0727,0.0,1.7,170.0,3.1,'11111222,11111222,11111222' 
TCOON,ioos:station:TCOON:009:1,2019-09-07T14:24:00Z,27.8398,-97.0727,0.0,2.2,263.0,2.5,'11111222,11111222,11111222' 
TCOON,ioos:station:TCOON:009:1,2019-09-07T15:24:00Z,27.8398,-97.0727,0.0,2.1,257.0,3.1,'11111222,11111222,11111222' 
TCOON,ioos:station:TCOON:009:1,2019-09-07T16:24:00Z,27.8398,-97.0727,0.0,0.3,277.0,0.6,'11111222,11111222,11111222' 
TCOON,ioos:station:TCOON:009:1,2019-09-07T17:24:00Z,27.8398,-97.0727,0.0,1.2,136.0,2.8,'11111222,11111222,11111222' 
TCOON,ioos:station:TCOON:009:1,2019-09-07T18:24:00Z,27.8398,-97.0727,0.0,3.4,123.0,5.2,'11111222,11111222,11111222' 
TCOON,ioos:station:TCOON:009:1,2019-09-07T19:24:00Z,27.8398,-97.0727,0.0,3.0,119.0,4.6,'11111222,11111222,11111222' 
TCOON,ioos:station:TCOON:009:1,2019-09-07T20:24:00Z,27.8398,-97.0727,0.0,4.0,108.0,5.1,'11111222,11111222,11111222' 
TCOON,ioos:station:TCOON:009:1,2019-09-07T21:24:00Z,27.8398,-97.0727,0.0,4.4,124.0,6.8,'11111222,11111222,11111222' 
TCOON,ioos:station:TCOON:009:1,2019-09-07T22:24:00Z,27.8398,-97.0727,0.0,4.8,129.0,7.5,'11111222,11111222,11111222' 
TCOON,ioos:station:TCOON:009:1,2019-09-07T23:24:00Z,27.8398,-97.0727,0.0,6.0,115.0,7.8,'11111222,11111222,11111222' 
TCOON,ioos:station:TCOON:009:1,2019-09-08T00:24:00Z,27.8398,-97.0727,0.0,4.5,122.0,6.8,'11111222,11111222,11111222' 
TCOON,ioos:station:TCOON:009:1,2019-09-08T01:24:00Z,27.8398,-97.0727,0.0,4.6,127.0,7.0,'11111222,11111222,11111222' 
TCOON,ioos:station:TCOON:009:1,2019-09-08T02:24:00Z,27.8398,-97.0727,0.0,4.1,129.0,6.6,'11111222,11111222,11111222' 
TCOON,ioos:station:TCOON:009:1,2019-09-08T03:24:00Z,27.8398,-97.0727,0.0,5.0,132.0,7.2,'11111222,11111222,11111222' 
TCOON,ioos:station:TCOON:009:1,2019-09-08T04:24:00Z,27.8398,-97.0727,0.0,2.5,153.0,5.5,'11111222,11111222,11111222' 
TCOON,ioos:station:TCOON:009:1,2019-09-08T05:24:00Z,27.8398,-97.0727,0.0,3.1,149.0,6.4,'11111222,11111222,11111222' 
TCOON,ioos:station:TCOON:009:1,2019-09-08T06:24:00Z,27.8398,-97.0727,0.0,3.1,155.0,6.4,'11111222,11111222,11111222' 
TCOON,ioos:station:TCOON:009:1,2019-09-08T07:24:00Z,27.8398,-97.0727,0.0,4.0,138.0,6.3,'11111222,11111222,11111222' 
TCOON,ioos:station:TCOON:009:1,2019-09-08T08:24:00Z,27.8398,-97.0727,0.0,2.0,157.0,5.9,'11111222,11111222,11111222' 
TCOON,ioos:station:TCOON:009:1,2019-09-08T09:24:00Z,27.8398,-97.0727,0.0,3.3,166.0,5.6,'11111222,11111222,11111222' 
TCOON,ioos:station:TCOON:009:1,2019-09-08T10:24:00Z,27.8398,-97.0727,0.0,2.8,164.0,4.8,'11111222,11111222,11111222' 
TCOON,ioos:station:TCOON:009:1,2019-09-08T11:24:00Z,27.8398,-97.0727,0.0,2.4,166.0,5.0,'11111222,11111222,11111222' 
TCOON,ioos:station:TCOON:009:1,2019-09-08T12:24:00Z,27.8398,-97.0727,0.0,2.4,150.0,4.4,'11111222,11111222,11111222' 
TCOON,ioos:station:TCOON:009:1,2019-09-08T13:24:00Z,27.8398,-97.0727,0.0,3.4,159.0,4.9,'11111222,11111222,11111222' 
TCOON,ioos:station:TCOON:009:1,2019-09-08T14:24:00Z,27.8398,-97.0727,0.0,3.0,144.0,5.5,'11111222,11111222,11111222' 
TCOON,ioos:station:TCOON:009:1,2019-09-08T15:24:00Z,27.8398,-97.0727,0.0,3.9,127.0,6.2,'11111222,11111222,11111222' 
TCOON,ioos:station:TCOON:009:1,2019-09-08T16:24:00Z,27.8398,-97.0727,0.0,4.2,135.0,6.2,'11111222,11111222,11111222' 
TCOON,ioos:station:TCOON:009:1,2019-09-08T17:24:00Z,27.8398,-97.0727,0.0,5.4,143.0,8.1,'11111222,11111222,11111222' 
TCOON,ioos:station:TCOON:009:1,2019-09-08T18:24:00Z,27.8398,-97.0727,0.0,5.2,140.0,8.3,'11111222,11111222,11111222' 
TCOON,ioos:station:TCOON:009:1,2019-09-08T19:24:00Z,27.8398,-97.0727,0.0,3.9,142.0,7.7,'11111222,11111222,11111222' 
TCOON,ioos:station:TCOON:009:1,2019-09-08T20:24:00Z,27.8398,-97.0727,0.0,4.8,131.0,8.1,'11111222,11111222,11111222' 
TCOON,ioos:station:TCOON:009:1,2019-09-08T21:24:00Z,27.8398,-97.0727,0.0,4.9,145.0,7.3,'11111222,11111222,11111222' 
TCOON,ioos:station:TCOON:009:1,2019-09-08T22:24:00Z,27.8398,-97.0727,0.0,5.1,132.0,7.4,'11111222,11111222,11111222' 
TCOON,ioos:station:TCOON:009:1,2019-09-08T23:24:00Z,27.8398,-97.0727,0.0,5.9,127.0,8.1,'11111222,11111222,11111222' 
TCOON,ioos:station:TCOON:009:1,2019-09-09T00:24:00Z,27.8398,-97.0727,0.0,4.2,127.0,6.9,'11111222,11111222,11111222' 
TCOON,ioos:station:TCOON:009:1,2019-09-09T01:24:00Z,27.8398,-97.0727,0.0,4.5,137.0,7.0,'11111222,11111222,11111222' 
TCOON,ioos:station:TCOON:009:1,2019-09-09T02:24:00Z,27.8398,-97.0727,0.0,4.6,138.0,6.8,'11111222,11111222,11111222' 
TCOON,ioos:station:TCOON:009:1,2019-09-09T03:24:00Z,27.8398,-97.0727,0.0,4.0,129.0,7.1,'11111222,11111222,11111222' 
TCOON,ioos:station:TCOON:009:1,2019-09-09T04:24:00Z,27.8398,-97.0727,0.0,5.1,133.0,8.6,'11111222,11111222,11111222' 
TCOON,ioos:station:TCOON:009:1,2019-09-09T05:24:00Z,27.8398,-97.0727,0.0,2.0,149.0,4.9,'11111222,11111222,11111222' 
TCOON,ioos:station:TCOON:009:1,2019-09-09T06:24:00Z,27.8398,-97.0727,0.0,3.8,143.0,7.0,'11111222,11111222,11111222' 
TCOON,ioos:station:TCOON:009:1,2019-09-09T07:24:00Z,27.8398,-97.0727,0.0,3.2,144.0,5.7,'11111222,11111222,11111222' 
TCOON,ioos:station:TCOON:009:1,2019-09-09T08:24:00Z,27.8398,-97.0727,0.0,5.8,144.0,7.7,'11111222,11111222,11111222' 
TCOON,ioos:station:TCOON:009:1,2019-09-09T09:24:00Z,27.8398,-97.0727,0.0,3.1,152.0,6.2,'11111222,11111222,11111222' 
TCOON,ioos:station:TCOON:009:1,2019-09-09T10:24:00Z,27.8398,-97.0727,0.0,2.2,154.0,6.6,'11111222,11111222,11111222' 
TCOON,ioos:station:TCOON:009:1,2019-09-09T11:24:00Z,27.8398,-97.0727,0.0,3.9,149.0,5.6,'11111222,11111222,11111222' 
TCOON,ioos:station:TCOON:009:1,2019-09-09T12:24:00Z,27.8398,-97.0727,0.0,3.0,155.0,4.6,'11111222,11111222,11111222' 
TCOON,ioos:station:TCOON:009:1,2019-09-09T13:24:00Z,27.8398,-97.0727,0.0,3.8,132.0,6.3,'11111222,11111222,11111222' 
TCOON,ioos:station:TCOON:009:1,2019-09-09T14:42:00Z,27.8398,-97.0727,0.0,3.7,140.0,7.1,'11111222,11111222,11111222' 